Regional Weather Roundup
Issued by NWS

Home | Current Version | Previous Version | Graphics & Text | Print | Product List | Glossary Off
Versions: 1 2 3 4 5 6 7 8 9 10 11 12 13 14 15 16 17 18 19 20 21 22 23 24 25 26 27 28 29 30 31 32 33 34 35 36 37 38 39 40 41 42 43 44 45 46 47 48 49 50

000
ASUS43 KTOP 270508
RWRKS

WEATHER ROUNDUP FOR KANSAS
NATIONAL WEATHER SERVICE GOODLAND KS
1200 AM CDT FRI MAY 27 2016

NOTE:  "FAIR" INDICATES FEW OR NO CLOUDS BELOW 12,000 FEET WITH NO
SIGNIFICANT WEATHER AND/OR OBSTRUCTIONS TO VISIBILITY.

KSZ001>006-013>018-027>032-041>047-270600-
NORTHWEST KANSAS

CITY           SKY/WX    TMP DP  RH WIND       PRES   REMARKS
HAYS           CLOUDY    28 N/A N/A E16G23    29.76R WCI  17
HILL CITY      CLOUDY    57  53  86 NE16G24   29.72R
RUSSELL        CLOUDY    57  56  96 E16       29.75F
$$

KSZ061>065-074>080-084>089-270600-
SOUTHWEST KANSAS

CITY           SKY/WX    TMP DP  RH WIND       PRES   REMARKS
DODGE CITY     CLOUDY    60  52  74 N14       29.73R
ELKHART          N/A     55  41  59 N9          N/A
GARDEN CITY    CLOUDY    53  47  79 N10       29.76R
GREAT BEND     CLOUDY    59  52  77 NE10      29.77R
LIBERAL        CLEAR     59  39  47 N15G26    29.77R
PRATT          CLOUDY    58  55  89 E8        29.68S
$$

KSZ066>073-081>083-090>101-270600-
SOUTHEAST KANSAS

CITY           SKY/WX    TMP DP  RH WIND       PRES   REMARKS
CHANUTE        MOCLDY    67  62  84 NE7       29.84R
COFFEYVILLE    CLOUDY    70  64  81 SE8       29.81R
HUTCHINSON     RAIN      59  57  93 E22G30    29.77F
MEDICINE LODGE   N/A     64  59  83 VRB3      29.72F
NEWTON         CLOUDY    57  52  82 NW3       29.90R THUNDER
PARSONS        CLOUDY    72  64  76 CALM      29.85R
WICHITA INTL   TSTM      61  59  93 NE21G30   29.81R FOG
WICHITA JABRA  CLOUDY    66  63  90 NE14      29.80R
WICHITA MCCONL LGT RAIN  70  61  73 NW26G39   29.82R
WINFIELD       CLOUDY    72  62  71 SW12      29.80R
$$

KSZ007>012-019>026-033>040-048>060-102>105-270600-
NORTHEAST KANSAS

CITY           SKY/WX    TMP DP  RH WIND       PRES   REMARKS
CONCORDIA      TSTM      60  59  96 E13       29.81F FOG
EMPORIA        TSTM      63  60  90 E13       29.83S
LAWRENCE       LGT RAIN  62  61  96 NE9       29.86F
MANHATTAN      TSTM      61  58  90 SW6       29.85S
MARYSVILLE     RAIN      61  59  94 SE20      29.85R
OLATHE IND     CLOUDY    63  62  97 NE14      29.84F
OLATHE EXE     CLOUDY    62  60  93 NE13      29.86F
SALINA         TSTM      60  59  96 S14       29.88R
TOPEKA BILLARD LGT RAIN  63  61  93 E18       29.80F
TOPEKA FORBES  LGT RAIN  64  61  90 E14       29.82F
$$




USA.gov is the U.S. government's official web portal to all federal, state and local government web resources and services.